User: anonymous   Login
Location: Unspecified
(0.0000°N, 0.0000°E)
Time: 21:23:21
(UTC+02:00)
Language:

Cosmos 1758 - Orbit

View from above orbital plane
View from above orbital plane
View from above satellite
View from above satellite

Ground track
Ground track

The orbit data is extracted from the following two-line orbital elements,

1 16791U 86046A   16182.04313096  .00000058  00000-0  20829-5 0  9991
2 16791  82.4697  15.0695 0016275 201.8425 158.2109 15.04043435632748
Epoch (UTC): 30 June 2016 01:02:06
Eccentricity: 0.0016275
inclination: 82.4697°
perigee height: 543 km
apogee height: 566 km
right ascension of ascending node: 15.0695°
argument of perigee: 201.8425°
revolutions per day: 15.04043435
mean anomaly at epoch: 158.2109°
orbit number at epoch: 63274

The dashed part of the orbit path shows where the satellite is in the earth's shadow,  

DLR